Hourly Data Report for October 21, 2016

All times are specified in Local Standard Time (LST). Add 1 hour to adjust for Daylight Saving Time where and when it is observed.

BAKER LAKE A
NUNAVUT

64°17'56.000" N
96°04'40.000" W
18.60 m
2300503
71926
YBK

Download Data

Hourly Data (October 2016)
Hourly Data Report for October 21, 2016
Temp Definition
°C
Dew Point Temp Definition
°C
Rel Hum Definition
%
Wind Dir Definition
10's deg

Wind Spd Definition
km/h
Visibility Definition
km
Stn Press Definition
kPa
Hmdx Definition


Wind Chill Definition


Weather Definition


TIME
00:00 Legend Double Dagger -5.4 -6.9 89 6 28 24.1 100.95   -13 Snow,Blowing Snow
01:00 Legend Double Dagger -5.5 -7.0 89 5 27 24.1 100.96   -13 Snow,Blowing Snow
02:00 Legend Double Dagger -5.7 -7.2 89 6 30 24.1 100.99   -14 Snow,Blowing Snow
03:00 Legend Double Dagger -5.7 -7.2 89 6 29 24.1 101.02   -14 Snow,Blowing Snow
04:00 Legend Double Dagger -5.6 -7.1 89 6 26 24.1 101.01   -13 Snow,Blowing Snow
05:00 Legend Double Dagger -5.5 -7.0 89 7 29 24.1 101.02   -14 Snow,Blowing Snow
06:00 Legend Double Dagger -5.4 -6.9 89 7 34 24.1 101.04   -14 Snow,Blowing Snow
07:00 Legend Double Dagger -5.3 -6.8 89 7 33 16.1 101.06   -14 Snow,Blowing Snow
08:00 Legend Double Dagger -5.6 -7.1 89 8 35 24.1 101.09   -14 Snow,Blowing Snow
09:00 Legend Double Dagger -5.7 -7.5 87 7 36 16.1 101.15   -15 Snow,Blowing Snow
10:00 Legend Double Dagger -5.8 -7.6 87 7 34 24.1 101.16   -15 Snow,Blowing Snow
11:00 Legend Double Dagger -5.9 -7.7 87 6 27 40.2 101.20   -14 Snow
12:00 Legend Double Dagger -5.7 -7.5 87 7 35 40.2 101.24   -14 Cloudy
13:00 Legend Double Dagger -5.7 -7.5 87 7 35 24.1 101.27   -14 LegendNANA
14:00 Legend Double Dagger -5.8 -7.6 87 7 35 24.1 101.27   -15 LegendNANA
15:00 Legend Double Dagger -6.2 -8.3 85 7 35 24.1 101.30   -15 Mostly Cloudy
16:00 Legend Double Dagger -6.8 -9.1 84 7 36 24.1 101.33   -16 LegendNANA
17:00 Legend Double Dagger -7.3 -9.4 85 7 34 40.2 101.36   -16 LegendNANA
18:00 Legend Double Dagger -6.5 -8.2 88 8 41 24.1 101.38   -16 Blowing Snow
19:00 Legend Double Dagger -5.7 -7.2 89 8 40 24.1 101.40   -15 Blowing Snow
20:00 Legend Double Dagger -5.8 -7.0 91 7 40 24.1 101.40   -15 Snow,Blowing Snow
21:00 Legend Double Dagger -5.6 -6.8 91 7 37 24.1 101.38   -15 Snow,Blowing Snow
22:00 Legend Double Dagger -5.4 -6.9 89 7 39 16.1 101.41   -15 Snow,Blowing Snow
23:00 Legend Double Dagger -5.6 -7.6 86 7 40 16.1 101.44   -15 Snow,Blowing Snow

Notes on Data Quality.

Legend

  • E = Estimated
  • M = Missing
  • NA = Not Available
  • ‡ = Partner data that is not subject to review by the National Climate Archives
Date modified: